Time,TemperatureF,DewpointF,PressureIn,WindDirection,WindDirectionDegrees,WindSpeedMPH,WindSpeedGustMPH,Humidity,HourlyPrecipIn,Conditions,Clouds,dailyrainin,SoftwareType,DateUTC
2013-01-30 00:04:00,55.0,52.0,29.95,SW,235,0.0,1.0,91,0.00,,,0.00,,2013-01-30 05:04:00,
2013-01-30 00:12:00,55.0,52.0,29.95,SW,235,0.0,1.0,91,0.00,,,0.00,,2013-01-30 05:12:00,
2013-01-30 00:22:00,55.0,53.0,29.94,SW,235,0.0,2.0,92,0.00,,,0.00,,2013-01-30 05:22:00,
2013-01-30 00:32:00,55.0,53.0,29.93,SW,235,0.0,1.0,93,0.00,,,0.00,,2013-01-30 05:32:00,
2013-01-30 00:43:00,55.0,53.0,29.93,SW,235,0.0,1.0,93,0.00,,,0.00,,2013-01-30 05:43:00,
2013-01-30 00:52:00,55.0,53.0,29.93,SW,235,0.0,1.0,93,0.00,,,0.00,,2013-01-30 05:52:00,
2013-01-30 01:02:00,55.0,53.0,29.90,SW,235,0.0,2.0,94,0.00,,,0.00,,2013-01-30 06:02:00,
2013-01-30 01:12:00,55.0,53.0,29.90,SW,235,0.0,2.0,94,0.00,,,0.00,,2013-01-30 06:12:00,
2013-01-30 01:21:00,55.0,53.0,29.89,SW,235,0.0,0.0,94,0.00,,,0.00,,2013-01-30 06:21:00,
2013-01-30 01:32:00,55.0,53.0,29.89,SW,235,0.0,0.0,94,0.00,,,0.00,,2013-01-30 06:32:00,
2013-01-30 01:42:00,55.0,53.0,29.89,SW,235,0.0,0.0,94,0.00,,,0.00,,2013-01-30 06:42:00,
2013-01-30 01:52:00,55.0,53.0,29.88,SW,235,0.0,2.0,94,0.00,,,0.00,,2013-01-30 06:52:00,
2013-01-30 02:02:00,55.0,54.0,29.88,NW,307,0.0,4.0,95,0.00,,,0.00,,2013-01-30 07:02:00,
2013-01-30 02:12:00,55.0,54.0,29.88,NW,307,0.0,4.0,95,0.00,,,0.00,,2013-01-30 07:12:00,
2013-01-30 02:22:00,56.0,54.0,29.88,NW,320,0.0,1.0,92,0.00,,,0.00,,2013-01-30 07:22:00,
2013-01-30 02:32:00,58.0,54.0,29.88,NW,318,3.0,10.0,86,0.00,,,0.00,,2013-01-30 07:32:00,
2013-01-30 02:42:00,58.0,54.0,29.88,NW,318,3.0,10.0,86,0.00,,,0.00,,2013-01-30 07:42:00,
2013-01-30 02:52:00,60.0,55.0,29.86,SSW,208,0.0,6.0,83,0.00,,,0.00,,2013-01-30 07:52:00,
2013-01-30 03:02:00,60.0,54.0,29.85,NW,324,4.0,9.0,80,0.00,,,0.00,,2013-01-30 08:02:00,
2013-01-30 03:11:00,60.0,54.0,29.85,NW,324,4.0,9.0,80,0.00,,,0.00,,2013-01-30 08:11:00,
2013-01-30 03:22:00,60.0,54.0,29.84,WNW,295,0.0,3.0,80,0.00,,,0.00,,2013-01-30 08:22:00,
2013-01-30 03:32:00,60.0,54.0,29.84,WNW,295,0.0,3.0,80,0.00,,,0.00,,2013-01-30 08:32:00,
2013-01-30 03:42:00,60.0,54.0,29.84,WNW,295,0.0,3.0,80,0.00,,,0.00,,2013-01-30 08:42:00,
2013-01-30 03:52:00,59.0,54.0,29.83,East,94,0.0,4.0,83,0.00,,,0.00,,2013-01-30 08:52:00,
2013-01-30 04:02:00,58.0,54.0,29.82,South,180,0.0,5.0,85,0.00,,,0.00,,2013-01-30 09:02:00,
2013-01-30 04:11:00,58.0,54.0,29.82,South,180,0.0,5.0,85,0.00,,,0.00,,2013-01-30 09:11:00,
2013-01-30 04:22:00,58.0,54.0,29.81,SSW,199,0.0,5.0,88,0.01,,,0.01,,2013-01-30 09:22:00,
2013-01-30 04:32:00,57.0,54.0,29.82,SSW,199,0.0,3.0,91,0.04,,,0.04,,2013-01-30 09:32:00,
2013-01-30 04:42:00,57.0,54.0,29.82,SSW,199,0.0,3.0,91,0.04,,,0.04,,2013-01-30 09:42:00,
2013-01-30 04:51:00,57.0,54.0,29.82,SSW,199,0.0,3.0,91,0.04,,,0.04,,2013-01-30 09:51:00,
2013-01-30 05:02:00,56.0,54.0,29.80,SSW,199,0.0,3.0,94,0.08,,,0.08,,2013-01-30 10:02:00,
2013-01-30 05:12:00,56.0,54.0,29.80,SSW,199,0.0,3.0,94,0.08,,,0.08,,2013-01-30 10:12:00,
2013-01-30 05:22:00,55.0,54.0,29.79,SSW,199,0.0,2.0,95,0.08,,,0.09,,2013-01-30 10:22:00,
2013-01-30 05:32:00,55.0,54.0,29.78,SW,230,0.0,2.0,95,0.05,,,0.09,,2013-01-30 10:32:00,
2013-01-30 05:42:00,55.0,54.0,29.78,SW,230,0.0,2.0,95,0.05,,,0.09,,2013-01-30 10:42:00,
2013-01-30 05:52:00,55.0,54.0,29.77,SW,227,0.0,4.0,95,0.03,,,0.10,,2013-01-30 10:52:00,
2013-01-30 06:02:00,55.0,54.0,29.77,WSW,243,0.0,3.0,95,0.03,,,0.11,,2013-01-30 11:02:00,
2013-01-30 06:11:00,55.0,54.0,29.77,WSW,243,0.0,3.0,95,0.03,,,0.11,,2013-01-30 11:11:00,
2013-01-30 06:22:00,55.0,54.0,29.76,SSW,199,0.0,5.0,95,0.03,,,0.12,,2013-01-30 11:22:00,
2013-01-30 06:33:00,55.0,54.0,29.75,WNW,300,1.0,3.0,95,0.03,,,0.12,,2013-01-30 11:33:00,
2013-01-30 06:42:00,55.0,54.0,29.75,WNW,300,1.0,3.0,95,0.03,,,0.12,,2013-01-30 11:42:00,
2013-01-30 06:52:00,55.0,54.0,29.74,NW,307,2.0,4.0,95,0.02,,,0.12,,2013-01-30 11:52:00,
2013-01-30 07:02:00,55.0,54.0,29.73,SE,135,0.0,4.0,95,0.01,,,0.12,,2013-01-30 12:02:00,
2013-01-30 07:12:00,55.0,54.0,29.73,SE,135,0.0,4.0,95,0.01,,,0.12,,2013-01-30 12:12:00,
2013-01-30 07:22:00,55.0,54.0,29.73,SSW,197,0.0,2.0,96,0.00,,,0.12,,2013-01-30 12:22:00,
2013-01-30 07:33:00,55.0,54.0,29.72,WNW,297,0.0,4.0,95,0.03,,,0.15,,2013-01-30 12:33:00,
2013-01-30 07:43:00,55.0,54.0,29.72,WNW,297,0.0,4.0,95,0.03,,,0.15,,2013-01-30 12:43:00,
2013-01-30 08:03:00,55.0,54.0,29.70,NW,312,0.0,6.0,96,0.05,,,0.17,,2013-01-30 13:03:00,
2013-01-30 08:12:00,55.0,54.0,29.70,NW,312,0.0,6.0,96,0.05,,,0.17,,2013-01-30 13:12:00,
2013-01-30 08:23:00,55.0,54.0,29.70,SSW,202,1.0,4.0,96,0.05,,,0.17,,2013-01-30 13:23:00,
2013-01-30 08:33:00,55.0,54.0,29.70,SSW,202,1.0,4.0,96,0.05,,,0.17,,2013-01-30 13:33:00,
2013-01-30 08:43:00,55.0,54.0,29.70,SSW,202,1.0,4.0,96,0.05,,,0.17,,2013-01-30 13:43:00,
2013-01-30 08:52:00,56.0,55.0,29.69,WSW,240,0.0,4.0,95,0.01,,,0.17,,2013-01-30 13:52:00,
2013-01-30 09:03:00,57.0,56.0,29.70,West,268,1.0,4.0,95,0.00,,,0.17,,2013-01-30 14:03:00,
2013-01-30 09:12:00,57.0,56.0,29.70,West,268,1.0,4.0,95,0.00,,,0.17,,2013-01-30 14:12:00,
2013-01-30 09:23:00,57.0,56.0,29.70,SW,226,0.0,4.0,95,0.00,,,0.17,,2013-01-30 14:23:00,
2013-01-30 09:33:00,57.0,56.0,29.69,SW,226,0.0,3.0,95,0.01,,,0.18,,2013-01-30 14:33:00,
2013-01-30 09:42:00,57.0,56.0,29.69,SW,226,0.0,3.0,95,0.01,,,0.18,,2013-01-30 14:42:00,
2013-01-30 09:52:00,57.0,56.0,29.69,SW,226,0.0,3.0,95,0.01,,,0.18,,2013-01-30 14:52:00,
2013-01-30 10:03:00,58.0,57.0,29.67,SW,228,1.0,3.0,95,0.01,,,0.18,,2013-01-30 15:03:00,
2013-01-30 10:12:00,58.0,57.0,29.67,SW,228,1.0,3.0,95,0.01,,,0.18,,2013-01-30 15:12:00,
2013-01-30 10:23:00,59.0,57.0,29.66,WNW,301,0.0,3.0,94,0.02,,,0.19,,2013-01-30 15:23:00,
2013-01-30 10:33:00,60.0,58.0,29.65,West,269,0.0,3.0,94,0.01,,,0.19,,2013-01-30 15:33:00,
2013-01-30 10:43:00,60.0,58.0,29.65,West,269,0.0,3.0,94,0.01,,,0.19,,2013-01-30 15:43:00,
2013-01-30 10:53:00,60.0,58.0,29.65,West,266,0.0,4.0,92,0.01,,,0.19,,2013-01-30 15:53:00,
2013-01-30 11:03:00,60.0,58.0,29.65,East,99,0.0,3.0,92,0.01,,,0.19,,2013-01-30 16:03:00,
2013-01-30 11:12:00,60.0,58.0,29.65,East,99,0.0,3.0,92,0.01,,,0.19,,2013-01-30 16:12:00,
2013-01-30 11:23:00,60.0,58.0,29.65,East,99,0.0,3.0,92,0.01,,,0.19,,2013-01-30 16:23:00,
2013-01-30 11:32:00,61.0,56.0,29.64,West,270,11.0,26.0,85,0.00,,,0.19,,2013-01-30 16:32:00,
2013-01-30 11:42:00,61.0,56.0,29.64,West,270,11.0,26.0,85,0.00,,,0.19,,2013-01-30 16:42:00,
2013-01-30 11:52:00,61.0,56.0,29.64,West,270,11.0,26.0,85,0.00,,,0.19,,2013-01-30 16:52:00,
2013-01-30 12:02:00,63.0,57.0,29.62,West,275,0.0,4.0,80,0.00,,,0.19,,2013-01-30 17:02:00,
2013-01-30 12:13:00,63.0,57.0,29.62,West,275,0.0,4.0,80,0.00,,,0.19,,2013-01-30 17:13:00,
2013-01-30 12:23:00,61.0,57.0,29.60,NW,305,2.0,5.0,88,0.01,,,0.20,,2013-01-30 17:23:00,
2013-01-30 12:33:00,62.0,57.0,29.59,NNW,334,2.0,5.0,84,0.01,,,0.20,,2013-01-30 17:33:00,
2013-01-30 12:43:00,62.0,57.0,29.59,NNW,334,2.0,5.0,84,0.01,,,0.20,,2013-01-30 17:43:00,
2013-01-30 12:53:00,63.0,57.0,29.59,SSE,159,2.0,7.0,82,0.01,,,0.20,,2013-01-30 17:53:00,
2013-01-30 13:03:00,63.0,57.0,29.57,NW,324,1.0,7.0,82,0.01,,,0.20,,2013-01-30 18:03:00,
2013-01-30 13:13:00,63.0,57.0,29.57,NW,324,1.0,7.0,82,0.01,,,0.20,,2013-01-30 18:13:00,
2013-01-30 13:23:00,62.0,57.0,29.56,NW,318,3.0,5.0,84,0.00,,,0.20,,2013-01-30 18:23:00,
2013-01-30 13:33:00,63.0,57.0,29.54,NW,318,4.0,8.0,82,0.00,,,0.20,,2013-01-30 18:33:00,
2013-01-30 13:43:00,63.0,57.0,29.54,NW,318,4.0,8.0,82,0.00,,,0.20,,2013-01-30 18:43:00,
2013-01-30 13:52:00,62.0,57.0,29.52,West,264,2.0,5.0,84,0.00,,,0.20,,2013-01-30 18:52:00,
2013-01-30 14:03:00,62.0,57.0,29.51,WSW,254,1.0,6.0,84,0.01,,,0.21,,2013-01-30 19:03:00,
2013-01-30 14:13:00,62.0,57.0,29.51,WSW,254,1.0,6.0,84,0.01,,,0.21,,2013-01-30 19:13:00,
2013-01-30 14:22:00,61.0,58.0,29.52,West,262,0.0,3.0,89,0.04,,,0.24,,2013-01-30 19:22:00,
2013-01-30 14:33:00,58.0,54.0,29.54,South,178,7.0,19.0,85,0.28,,,0.49,,2013-01-30 19:33:00,
2013-01-30 14:43:00,58.0,54.0,29.54,South,178,7.0,19.0,85,0.28,,,0.49,,2013-01-30 19:43:00,
2013-01-30 14:52:00,56.0,53.0,29.52,SSW,195,3.0,7.0,89,0.37,,,0.56,,2013-01-30 19:52:00,
2013-01-30 15:03:00,56.0,53.0,29.52,West,261,1.0,13.0,89,0.40,,,0.61,,2013-01-30 20:03:00,
2013-01-30 15:12:00,56.0,53.0,29.52,West,261,1.0,13.0,89,0.40,,,0.61,,2013-01-30 20:12:00,
2013-01-30 15:22:00,55.0,53.0,29.52,WSW,243,2.0,8.0,92,0.40,,,0.65,,2013-01-30 20:22:00,
2013-01-30 15:33:00,55.0,53.0,29.50,WSW,240,1.0,4.0,94,0.18,,,0.69,,2013-01-30 20:33:00,
2013-01-30 15:42:00,55.0,53.0,29.50,WSW,240,1.0,4.0,94,0.18,,,0.69,,2013-01-30 20:42:00,
2013-01-30 15:52:00,54.0,52.0,29.51,SSW,203,0.0,3.0,94,0.18,,,0.75,,2013-01-30 20:52:00,
2013-01-30 16:04:00,54.0,53.0,29.52,West,268,0.0,4.0,95,0.19,,,0.80,,2013-01-30 21:04:00,
2013-01-30 16:12:00,54.0,53.0,29.52,West,268,0.0,4.0,95,0.19,,,0.80,,2013-01-30 21:12:00,
2013-01-30 16:23:00,54.0,53.0,29.50,ESE,111,1.0,4.0,95,0.20,,,0.85,,2013-01-30 21:23:00,
2013-01-30 16:32:00,54.0,53.0,29.49,ESE,111,0.0,0.0,96,0.22,,,0.91,,2013-01-30 21:32:00,
2013-01-30 16:42:00,54.0,53.0,29.49,ESE,111,0.0,0.0,96,0.22,,,0.91,,2013-01-30 21:42:00,
2013-01-30 16:52:00,54.0,53.0,29.47,ESE,111,0.0,1.0,96,0.21,,,0.96,,2013-01-30 21:52:00,
2013-01-30 17:03:00,54.0,53.0,29.46,ESE,111,0.0,1.0,96,0.20,,,1.01,,2013-01-30 22:03:00,
2013-01-30 17:12:00,54.0,53.0,29.46,ESE,111,0.0,1.0,96,0.20,,,1.01,,2013-01-30 22:12:00,
2013-01-30 17:22:00,53.0,52.0,29.45,WSW,257,2.0,4.0,96,0.20,,,1.05,,2013-01-30 22:22:00,
2013-01-30 17:32:00,53.0,52.0,29.44,South,186,0.0,3.0,96,0.19,,,1.10,,2013-01-30 22:32:00,
2013-01-30 17:42:00,53.0,52.0,29.44,South,186,0.0,3.0,96,0.19,,,1.10,,2013-01-30 22:42:00,
2013-01-30 17:52:00,53.0,52.0,29.44,South,186,0.0,1.0,96,0.17,,,1.12,,2013-01-30 22:52:00,
2013-01-30 18:02:00,53.0,52.0,29.44,South,186,0.0,1.0,96,0.13,,,1.13,,2013-01-30 23:02:00,
2013-01-30 18:12:00,53.0,52.0,29.44,South,186,0.0,1.0,96,0.13,,,1.13,,2013-01-30 23:12:00,
2013-01-30 18:22:00,53.0,52.0,29.44,NE,50,0.0,3.0,96,0.10,,,1.14,,2013-01-30 23:22:00,
2013-01-30 18:33:00,53.0,52.0,29.44,West,267,0.0,3.0,96,0.08,,,1.18,,2013-01-30 23:33:00,
2013-01-30 18:42:00,53.0,52.0,29.44,West,267,0.0,3.0,96,0.08,,,1.18,,2013-01-30 23:42:00,
2013-01-30 18:52:00,52.0,50.0,29.45,WSW,254,2.0,8.0,93,0.06,,,1.19,,2013-01-30 23:52:00,
2013-01-30 19:02:00,52.0,49.0,29.44,SE,141,4.0,10.0,90,0.07,,,1.21,,2013-01-31 00:02:00,
2013-01-30 19:11:00,52.0,49.0,29.44,SE,141,4.0,10.0,90,0.07,,,1.21,,2013-01-31 00:11:00,
2013-01-30 19:22:00,50.0,47.0,29.47,SW,236,3.0,14.0,90,0.08,,,1.23,,2013-01-31 00:22:00,
2013-01-30 19:32:00,50.0,47.0,29.46,SW,224,0.0,5.0,91,0.08,,,1.26,,2013-01-31 00:32:00,
2013-01-30 19:42:00,50.0,47.0,29.46,SW,224,0.0,5.0,91,0.08,,,1.26,,2013-01-31 00:42:00,
2013-01-30 19:53:00,49.0,47.0,29.47,WNW,282,0.0,2.0,92,0.08,,,1.27,,2013-01-31 00:53:00,
2013-01-30 20:02:00,49.0,45.0,29.47,North,5,4.0,13.0,85,0.08,,,1.29,,2013-01-31 01:02:00,
2013-01-30 20:12:00,49.0,45.0,29.47,North,5,4.0,13.0,85,0.08,,,1.29,,2013-01-31 01:12:00,
2013-01-30 20:22:00,48.0,43.0,29.46,WSW,251,1.0,12.0,82,0.06,,,1.29,,2013-01-31 01:22:00,
2013-01-30 20:32:00,47.0,42.0,29.46,West,269,3.0,11.0,84,0.05,,,1.31,,2013-01-31 01:32:00,
2013-01-30 20:42:00,47.0,42.0,29.46,West,269,3.0,11.0,84,0.05,,,1.31,,2013-01-31 01:42:00,
2013-01-30 20:52:00,46.0,42.0,29.47,SW,235,1.0,11.0,85,0.04,,,1.31,,2013-01-31 01:52:00,
2013-01-30 21:01:00,45.0,41.0,29.48,WNW,295,2.0,5.0,87,0.02,,,1.31,,2013-01-31 02:01:00,
2013-01-30 21:12:00,45.0,41.0,29.48,WNW,295,2.0,5.0,87,0.02,,,1.31,,2013-01-31 02:12:00,
2013-01-30 21:22:00,45.0,42.0,29.48,SW,220,0.0,3.0,90,0.02,,,1.31,,2013-01-31 02:22:00,
2013-01-30 21:32:00,45.0,40.0,29.48,SW,229,6.0,13.0,84,0.00,,,1.31,,2013-01-31 02:32:00,
2013-01-30 21:42:00,45.0,40.0,29.48,SW,229,6.0,13.0,84,0.00,,,1.31,,2013-01-31 02:42:00,
2013-01-30 21:52:00,45.0,40.0,29.48,SW,229,6.0,13.0,84,0.00,,,1.31,,2013-01-31 02:52:00,
2013-01-30 22:03:00,44.0,41.0,29.46,West,266,0.0,9.0,90,0.02,,,1.33,,2013-01-31 03:03:00,
2013-01-30 22:11:00,44.0,41.0,29.46,West,266,0.0,9.0,90,0.02,,,1.33,,2013-01-31 03:11:00,
2013-01-30 22:22:00,43.0,40.0,29.43,WNW,283,1.0,3.0,89,0.02,,,1.33,,2013-01-31 03:22:00,
2013-01-30 22:32:00,43.0,40.0,29.44,WSW,249,0.0,5.0,89,0.02,,,1.33,,2013-01-31 03:32:00,
2013-01-30 22:42:00,43.0,40.0,29.44,WSW,249,0.0,5.0,89,0.02,,,1.33,,2013-01-31 03:42:00,
2013-01-30 22:51:00,43.0,40.0,29.44,WSW,249,0.0,5.0,89,0.02,,,1.33,,2013-01-31 03:51:00,
2013-01-30 23:02:00,42.0,38.0,29.48,West,270,3.0,6.0,86,0.00,,,1.33,,2013-01-31 04:02:00,
2013-01-30 23:11:00,42.0,38.0,29.48,West,270,3.0,6.0,86,0.00,,,1.33,,2013-01-31 04:11:00,
2013-01-30 23:22:00,42.0,38.0,29.45,SW,224,1.0,6.0,85,0.00,,,1.33,,2013-01-31 04:22:00,
2013-01-30 23:32:00,42.0,38.0,29.47,West,262,1.0,8.0,84,0.00,,,1.33,,2013-01-31 04:32:00,
2013-01-30 23:42:00,42.0,38.0,29.47,West,262,1.0,8.0,84,0.00,,,1.33,,2013-01-31 04:42:00,
2013-01-30 23:51:00,42.0,38.0,29.48,NNE,20,0.0,11.0,84,0.00,,,1.33,,2013-01-31 04:51:00,